Time,TemperatureF,DewpointF,PressureIn,WindDirection,WindDirectionDegrees,WindSpeedMPH,WindSpeedGustMPH,Humidity,HourlyPrecipIn,Conditions,Clouds,dailyrainin,SoftwareType,DateUTC
2013-01-19 00:01:00,38.4,30.0,30.31,NE,49,2.0,6.0,73,0.00,,,0.00,weatherlink.com 1.10,2013-01-19 05:01:00,
2013-01-19 00:17:00,38.3,30.0,30.30,ENE,63,2.0,7.0,72,0.00,,,0.00,weatherlink.com 1.10,2013-01-19 05:17:00,
2013-01-19 00:32:00,37.7,30.0,30.30,NE,53,0.0,3.0,74,0.00,,,0.00,weatherlink.com 1.10,2013-01-19 05:32:00,
2013-01-19 00:47:00,36.8,30.0,30.31,ENE,70,0.0,2.0,76,0.00,,,0.00,weatherlink.com 1.10,2013-01-19 05:47:00,
2013-01-19 01:02:00,34.4,29.0,30.31,ENE,70,0.0,0.0,82,0.00,,,0.00,weatherlink.com 1.10,2013-01-19 06:02:00,
2013-01-19 01:17:00,32.9,29.0,30.32,NNW,338,0.0,0.0,86,0.00,,,0.00,weatherlink.com 1.10,2013-01-19 06:17:00,
2013-01-19 01:32:00,32.0,29.0,30.32,NW,323,1.0,2.0,88,0.00,,,0.00,weatherlink.com 1.10,2013-01-19 06:32:00,
2013-01-19 01:48:00,33.1,31.0,30.31,NNE,30,1.0,3.0,90,0.00,,,0.00,weatherlink.com 1.10,2013-01-19 06:48:00,
2013-01-19 02:03:00,35.4,31.0,30.31,NE,54,3.0,4.0,85,0.00,,,0.00,weatherlink.com 1.10,2013-01-19 07:03:00,
2013-01-19 02:18:00,36.4,31.0,30.30,NE,37,1.0,7.0,82,0.00,,,0.00,weatherlink.com 1.10,2013-01-19 07:18:00,
2013-01-19 02:33:00,36.4,31.0,30.30,NE,34,4.0,4.0,81,0.00,,,0.00,weatherlink.com 1.10,2013-01-19 07:33:00,
2013-01-19 02:48:00,36.6,31.0,30.30,NE,41,3.0,5.0,81,0.00,,,0.00,weatherlink.com 1.10,2013-01-19 07:48:00,
2013-01-19 03:03:00,36.9,31.0,30.29,ENE,58,5.0,7.0,79,0.00,,,0.00,weatherlink.com 1.10,2013-01-19 08:03:00,
2013-01-19 03:19:00,37.5,31.0,30.29,ENE,77,5.0,7.0,78,0.00,,,0.00,weatherlink.com 1.10,2013-01-19 08:19:00,
2013-01-19 03:34:00,37.1,31.0,30.29,NNE,32,2.0,5.0,78,0.00,,,0.00,weatherlink.com 1.10,2013-01-19 08:34:00,
2013-01-19 03:49:00,36.8,31.0,30.29,NE,47,2.0,3.0,80,0.00,,,0.00,weatherlink.com 1.10,2013-01-19 08:49:00,
2013-01-19 04:04:00,36.8,31.0,30.29,ENE,68,5.0,6.0,80,0.00,,,0.00,weatherlink.com 1.10,2013-01-19 09:04:00,
2013-01-19 04:19:00,36.8,31.0,30.28,ENE,68,3.0,5.0,80,0.00,,,0.00,weatherlink.com 1.10,2013-01-19 09:19:00,
2013-01-19 04:34:00,35.5,30.0,30.27,NE,47,3.0,5.0,79,0.00,,,0.00,weatherlink.com 1.10,2013-01-19 09:34:00,
2013-01-19 04:49:00,-999.0,-99.9,30.27,North,-999,-999.0,-999.0,-999,0.00,,,0.00,weatherlink.com 1.10,2013-01-19 09:49:00,
2013-01-19 05:06:00,-999.0,-99.9,30.27,North,-999,-999.0,-999.0,-999,0.00,,,0.00,weatherlink.com 1.10,2013-01-19 10:06:00,
2013-01-19 05:20:00,-999.0,-99.9,30.28,North,-999,-999.0,-999.0,-999,0.00,,,0.00,weatherlink.com 1.10,2013-01-19 10:20:00,
2013-01-19 05:36:00,-999.0,-99.9,30.28,North,-999,-999.0,-999.0,-999,0.00,,,0.00,weatherlink.com 1.10,2013-01-19 10:36:00,
2013-01-19 05:50:00,-999.0,-99.9,30.28,North,-999,-999.0,-999.0,-999,0.00,,,0.00,weatherlink.com 1.10,2013-01-19 10:50:00,
2013-01-19 06:07:00,-999.0,-99.9,30.28,North,-999,-999.0,-999.0,-999,0.00,,,0.00,weatherlink.com 1.10,2013-01-19 11:07:00,
2013-01-19 07:51:00,35.1,32.0,30.28,NE,56,0.0,2.0,89,0.00,,,0.00,weatherlink.com 1.10,2013-01-19 12:51:00,
2013-01-19 08:07:00,37.0,33.0,30.28,NE,43,0.0,3.0,86,0.00,,,0.00,weatherlink.com 1.10,2013-01-19 13:07:00,
2013-01-19 08:22:00,38.9,33.0,30.29,ENE,74,6.0,6.0,80,0.00,,,0.00,weatherlink.com 1.10,2013-01-19 13:22:00,
2013-01-19 08:37:00,40.1,32.0,30.28,NE,46,7.0,7.0,73,0.00,,,0.00,weatherlink.com 1.10,2013-01-19 13:37:00,
2013-01-19 08:52:00,41.0,31.0,30.28,East,79,7.0,9.0,68,0.00,,,0.00,weatherlink.com 1.10,2013-01-19 13:52:00,
2013-01-19 09:07:00,42.0,31.0,30.29,ESE,115,3.0,8.0,65,0.00,,,0.00,weatherlink.com 1.10,2013-01-19 14:07:00,
2013-01-19 09:22:00,43.0,30.0,30.29,ENE,76,4.0,7.0,60,0.00,,,0.00,weatherlink.com 1.10,2013-01-19 14:22:00,
2013-01-19 09:38:00,44.2,29.0,30.29,ENE,63,6.0,7.0,55,0.00,,,0.00,weatherlink.com 1.10,2013-01-19 14:38:00,
2013-01-19 09:53:00,45.3,29.0,30.29,NE,55,1.0,8.0,54,0.00,,,0.00,weatherlink.com 1.10,2013-01-19 14:53:00,
2013-01-19 10:08:00,46.1,30.0,30.29,NNE,15,6.0,6.0,54,0.00,,,0.00,weatherlink.com 1.10,2013-01-19 15:08:00,
2013-01-19 10:23:00,46.9,30.0,30.29,ENE,71,5.0,7.0,52,0.00,,,0.00,weatherlink.com 1.10,2013-01-19 15:23:00,
2013-01-19 10:38:00,47.6,31.0,30.28,ENE,60,3.0,5.0,52,0.00,,,0.00,weatherlink.com 1.10,2013-01-19 15:38:00,
2013-01-19 10:53:00,48.7,32.0,30.27,ENE,61,4.0,7.0,53,0.00,,,0.00,weatherlink.com 1.10,2013-01-19 15:53:00,
2013-01-19 11:09:00,50.1,33.0,30.26,North,4,1.0,4.0,53,0.00,,,0.00,weatherlink.com 1.10,2013-01-19 16:09:00,
2013-01-19 11:24:00,50.7,34.0,30.25,NNE,30,3.0,5.0,54,0.00,,,0.00,weatherlink.com 1.10,2013-01-19 16:24:00,
2013-01-19 11:39:00,51.1,35.0,30.24,ENE,70,3.0,6.0,55,0.00,,,0.00,weatherlink.com 1.10,2013-01-19 16:39:00,
2013-01-19 11:54:00,51.5,36.0,30.22,NNW,347,2.0,6.0,55,0.00,,,0.00,weatherlink.com 1.10,2013-01-19 16:54:00,
2013-01-19 12:09:00,52.2,35.0,30.20,NE,54,5.0,6.0,53,0.00,,,0.00,weatherlink.com 1.10,2013-01-19 17:09:00,
2013-01-19 12:24:00,52.7,36.0,30.19,East,82,2.0,6.0,54,0.00,,,0.00,weatherlink.com 1.10,2013-01-19 17:24:00,
2013-01-19 12:40:00,53.9,37.0,30.18,ENE,71,3.0,5.0,53,0.00,,,0.00,weatherlink.com 1.10,2013-01-19 17:40:00,
2013-01-19 13:26:00,57.5,39.0,30.15,WSW,253,1.0,4.0,51,0.00,,,0.00,weatherlink.com 1.10,2013-01-19 18:26:00,
2013-01-19 13:40:00,58.3,41.0,30.14,ESE,115,1.0,4.0,52,0.00,,,0.00,weatherlink.com 1.10,2013-01-19 18:40:00,
2013-01-19 14:26:00,59.5,44.0,30.11,West,275,3.0,7.0,57,0.00,,,0.00,weatherlink.com 1.10,2013-01-19 19:26:00,
2013-01-19 14:56:00,61.0,44.0,30.10,West,264,1.0,4.0,54,0.00,,,0.00,weatherlink.com 1.10,2013-01-19 19:56:00,
2013-01-19 15:27:00,61.3,43.0,30.09,West,274,3.0,7.0,52,0.00,,,0.00,weatherlink.com 1.10,2013-01-19 20:27:00,
2013-01-19 15:42:00,61.1,44.0,30.09,SSE,149,4.0,6.0,54,0.00,,,0.00,weatherlink.com 1.10,2013-01-19 20:42:00,
2013-01-19 15:57:00,61.3,44.0,30.09,SSW,213,3.0,6.0,53,0.00,,,0.00,weatherlink.com 1.10,2013-01-19 20:57:00,
2013-01-19 16:57:00,57.2,46.0,30.07,SSW,195,6.0,7.0,66,0.00,,,0.00,weatherlink.com 1.10,2013-01-19 21:57:00,
2013-01-19 17:13:00,55.4,46.0,30.07,SSW,200,5.0,9.0,70,0.00,,,0.00,weatherlink.com 1.10,2013-01-19 22:13:00,
2013-01-19 17:28:00,54.3,45.0,30.07,SW,222,2.0,6.0,72,0.00,,,0.00,weatherlink.com 1.10,2013-01-19 22:28:00,
2013-01-19 17:58:00,52.3,45.0,30.06,SW,218,3.0,4.0,76,0.00,,,0.00,weatherlink.com 1.10,2013-01-19 22:58:00,
2013-01-19 18:13:00,51.3,45.0,30.06,SSW,203,2.0,3.0,79,0.00,,,0.00,weatherlink.com 1.10,2013-01-19 23:13:00,
2013-01-19 18:28:00,50.6,45.0,30.07,SSW,212,0.0,1.0,81,0.00,,,0.00,weatherlink.com 1.10,2013-01-19 23:28:00,
2013-01-19 18:43:00,49.5,44.0,30.07,SSW,212,0.0,0.0,82,0.00,,,0.00,weatherlink.com 1.10,2013-01-19 23:43:00,
2013-01-19 19:14:00,47.2,44.0,30.07,SSW,204,0.0,0.0,87,0.00,,,0.00,weatherlink.com 1.10,2013-01-20 00:14:00,
2013-01-19 19:29:00,46.4,43.0,30.07,SSW,205,0.0,0.0,89,0.00,,,0.00,weatherlink.com 1.10,2013-01-20 00:29:00,
2013-01-19 19:44:00,45.6,43.0,30.07,SSW,204,0.0,0.0,90,0.00,,,0.00,weatherlink.com 1.10,2013-01-20 00:44:00,
2013-01-19 19:59:00,45.2,43.0,30.07,SSW,204,0.0,0.0,91,0.00,,,0.00,weatherlink.com 1.10,2013-01-20 00:59:00,
2013-01-19 20:29:00,44.3,42.0,30.06,SSW,204,0.0,0.0,92,0.00,,,0.00,weatherlink.com 1.10,2013-01-20 01:29:00,
2013-01-19 20:44:00,43.6,42.0,30.05,SSW,203,0.0,0.0,92,0.00,,,0.00,weatherlink.com 1.10,2013-01-20 01:44:00,
2013-01-19 21:01:00,43.1,41.0,30.05,SSW,196,0.0,1.0,93,0.00,,,0.00,weatherlink.com 1.10,2013-01-20 02:01:00,
2013-01-19 21:14:00,42.8,41.0,30.05,SSW,197,0.0,1.0,93,0.00,,,0.00,weatherlink.com 1.10,2013-01-20 02:14:00,
2013-01-19 21:30:00,42.4,41.0,30.05,SSW,196,0.0,0.0,94,0.00,,,0.00,weatherlink.com 1.10,2013-01-20 02:30:00,
2013-01-19 22:01:00,42.0,40.0,30.04,SSW,197,0.0,0.0,94,0.00,,,0.00,weatherlink.com 1.10,2013-01-20 03:01:00,
2013-01-19 22:16:00,41.7,40.0,30.03,SSW,198,0.0,0.0,94,0.00,,,0.00,weatherlink.com 1.10,2013-01-20 03:16:00,
2013-01-19 22:31:00,41.5,40.0,30.03,SSW,198,0.0,0.0,95,0.00,,,0.00,weatherlink.com 1.10,2013-01-20 03:31:00,
2013-01-19 22:46:00,41.4,40.0,30.02,SSW,198,0.0,0.0,94,0.00,,,0.00,weatherlink.com 1.10,2013-01-20 03:46:00,
2013-01-19 23:01:00,41.3,40.0,30.02,SSW,198,0.0,0.0,94,0.00,,,0.00,weatherlink.com 1.10,2013-01-20 04:01:00,
2013-01-19 23:16:00,41.0,40.0,30.00,SSW,197,0.0,1.0,95,0.00,,,0.00,weatherlink.com 1.10,2013-01-20 04:16:00,
2013-01-19 23:32:00,40.9,40.0,30.00,SW,233,0.0,0.0,95,0.00,,,0.00,weatherlink.com 1.10,2013-01-20 04:32:00,